Flag Weather past 2 weeks in Atlanta, Georgia, U.S.A.

Now
33 °F

Clear.


Feels Like: 33 °F
Forecast: 35 / 55 °F
Wind: No wind

Location: Fulton County Airport-Brown Field

Current Time: Nov 22, 2014 at 4:18:13 AM

Latest Report: Nov 22, 2014 at 3:53 AM


Visibility: 10 mi

Pressure: 30.44 "Hg

Humidity: 88%

Dew point: 30 °F

Location of AtlantaLocation

Historic Weather in Atlanta — Graph

°F

Atlanta temperature yesterday

Maximum temperature yesterday: 63 °F (at 1:53 PM)
Minimum temperature yesterday: 29 °F (at 6:53 AM)
Average temperature yesterday: 44 °F

Past Weeks' High & Low Weather Summary

 TemperatureHumidityPressure
High72 °F (Nov 11, 3:53 PM)97% (Nov 17, 12:53 AM)30.43 "Hg (Nov 17, 12:53 AM)
Low19 °F (Nov 19, 3:53 AM)27% (Nov 19, 3:53 PM)29.74 "Hg (Nov 17, 6:53 AM)
Average43 °F64%30.14 "Hg
* Reported Nov 7 2:53 AM — Nov 22 2:53 AM, Atlanta, Weather by CustomWeather, © 2014

Note: Actual official high and low records may vary slightly from our data, if they occured in-between our weather recording intervals... More about our weather records

Advertising

Atlanta weather history for previous 24 hours

 ConditionsComfort  
Time TempWeatherWind HumidityBarometerVisibility
2:53 AM
Nov 22
33 °FClear.No wind88%30.43 "Hg10 mi
1:53 AM34 °FClear.No wind85%30.41 "Hg10 mi
12:53 AM34 °FClear.No wind88%30.42 "Hg9 mi
11:53 PM
Nov 21
35 °FClear.No wind88%30.42 "Hg10 mi
10:53 PM37 °FClear.No wind86%30.42 "Hg10 mi
9:53 PM39 °FClear.No wind82%30.42 "Hg10 mi
8:53 PM41 °FClear.No wind80%30.41 "Hg10 mi
7:53 PM43 °FClear.No wind74%30.39 "Hg10 mi
6:53 PM48 °FClear.No wind63%30.38 "Hg10 mi
5:53 PM55 °FClear.No wind47%30.36 "Hg10 mi
4:53 PM61 °FSunny.6 mph36%30.35 "Hg10 mi
3:53 PM62 °FSunny.6 mph35%30.34 "Hg10 mi
2:53 PM62 °FSunny.6 mph37%30.35 "Hg10 mi
1:53 PM63 °FSunny.9 mph35%30.35 "Hg10 mi
12:53 PM61 °FSunny.5 mph34%30.38 "Hg10 mi
11:53 AM58 °FSunny.3 mph32%30.40 "Hg10 mi
10:53 AM53 °FSunny.No wind41%30.42 "Hg10 mi
9:53 AM47 °FSunny.No wind56%30.41 "Hg10 mi
8:53 AM41 °FSunny.No wind76%30.40 "Hg10 mi
7:53 AM32 °FSunny.No wind92%30.38 "Hg10 mi
6:53 AM29 °FClear.3 mph89%30.35 "Hg10 mi
5:53 AM30 °FClear.No wind92%30.33 "Hg8 mi
4:53 AM32 °FClear.No wind88%30.30 "Hg10 mi
Weather by CustomWeather, © 2014

See weather overviewHow to use our weather pages